CSN316 RKSI-ZBAD

Flight info

Callsign CSN316
Flight time 1h 36m
Altitude 21700
Route NOPIK Y697 AGAVO/K0719S0660 A591 IKEKA W4 FZ/K0833S1100 W4 HCH W200 DOVIV W55 DUMAP DUMAP5L
Aircraft A321/M-SDE3FGHIRWY/LB1

Departure

Time 2026-04-25 03:07
Airport Incheon International Airport (RKSI)

Arrival

Time 2026-04-25 04:44
Airport Beijing Daxing International Airport (ZBAD)
Time Latitude Longitude Altitude Speed Heading
2026-04-25 02:32 37.45428 126.44359 31 ft 0 kts 324°
2026-04-25 02:50 37.45414 126.44371 32 ft 3 kts 324°
2026-04-25 02:50 37.45399 126.44385 32 ft 3 kts 324°
2026-04-25 02:50 37.45384 126.44399 29 ft 3 kts 324°
2026-04-25 02:50 37.45380 126.44402 31 ft 0 kts 324°
2026-04-25 02:51 37.45377 126.44405 30 ft 3 kts 324°
2026-04-25 02:51 37.45371 126.44411 31 ft 0 kts 324°
2026-04-25 02:51 37.45360 126.44422 33 ft 3 kts 287°
2026-04-25 02:52 37.45360 126.44442 33 ft 0 kts 240°
2026-04-25 02:54 37.45358 126.44439 33 ft 1 kts 240°
2026-04-25 02:54 37.45351 126.44423 31 ft 3 kts 243°
2026-04-25 02:54 37.45340 126.44394 32 ft 4 kts 244°
2026-04-25 02:55 37.45325 126.44354 33 ft 6 kts 243°
2026-04-25 02:55 37.45300 126.44304 31 ft 7 kts 236°
2026-04-25 02:55 37.45275 126.44259 33 ft 6 kts 234°
2026-04-25 02:55 37.45248 126.44213 33 ft 7 kts 234°
2026-04-25 02:56 37.45228 126.44177 33 ft 1 kts 234°
2026-04-25 02:56 37.45224 126.44170 33 ft 0 kts 234°
2026-04-25 02:56 37.45221 126.44164 33 ft 2 kts 234°
2026-04-25 02:57 37.45211 126.44147 33 ft 3 kts 234°
2026-04-25 02:57 37.45192 126.44124 33 ft 4 kts 213°
2026-04-25 02:57 37.45158 126.44120 33 ft 6 kts 164°
2026-04-25 02:57 37.45118 126.44130 33 ft 7 kts 190°
2026-04-25 02:58 37.45080 126.44089 33 ft 8 kts 233°
2026-04-25 02:58 37.45045 126.44028 33 ft 9 kts 238°
2026-04-25 02:58 37.45062 126.43953 33 ft 10 kts 320°
2026-04-25 02:58 37.45123 126.43898 33 ft 11 kts 324°
2026-04-25 02:59 37.45192 126.43837 32 ft 13 kts 324°
2026-04-25 02:59 37.45268 126.43770 33 ft 14 kts 324°
2026-04-25 02:59 37.45350 126.43695 33 ft 15 kts 324°
2026-04-25 02:59 37.45440 126.43615 33 ft 16 kts 324°
2026-04-25 03:00 37.45535 126.43531 33 ft 17 kts 324°
2026-04-25 03:00 37.45637 126.43440 33 ft 19 kts 324°
2026-04-25 03:00 37.45746 126.43344 33 ft 20 kts 324°
2026-04-25 03:00 37.45859 126.43242 30 ft 20 kts 324°
2026-04-25 03:01 37.45978 126.43136 31 ft 21 kts 324°
2026-04-25 03:01 37.46102 126.43026 33 ft 22 kts 325°
2026-04-25 03:01 37.46230 126.42912 32 ft 23 kts 324°
2026-04-25 03:01 37.46361 126.42796 33 ft 24 kts 324°
2026-04-25 03:02 37.46497 126.42674 33 ft 24 kts 324°
2026-04-25 03:02 37.46637 126.42550 33 ft 25 kts 324°
2026-04-25 03:02 37.46780 126.42422 33 ft 26 kts 324°
2026-04-25 03:02 37.46927 126.42291 31 ft 26 kts 324°
2026-04-25 03:03 37.47062 126.42173 33 ft 20 kts 326°
2026-04-25 03:03 37.47165 126.42081 33 ft 17 kts 323°
2026-04-25 03:03 37.47257 126.41997 33 ft 16 kts 324°
2026-04-25 03:03 37.47341 126.41923 33 ft 12 kts 325°
2026-04-25 03:04 37.47399 126.41869 33 ft 8 kts 315°
2026-04-25 03:04 37.47400 126.41805 33 ft 8 kts 239°
2026-04-25 03:04 37.47364 126.41740 33 ft 10 kts 234°
2026-04-25 03:05 37.47291 126.41609 33 ft 6 kts 234°
2026-04-25 03:05 37.47270 126.41581 33 ft 4 kts 209°
2026-04-25 03:05 37.47245 126.41592 32 ft 4 kts 148°
2026-04-25 03:05 37.47227 126.41607 32 ft 0 kts 144°
2026-04-25 03:06 37.47225 126.41609 33 ft 3 kts 144°
2026-04-25 03:06 37.47118 126.41703 33 ft 48 kts 145°
2026-04-25 03:06 37.46640 126.42130 32 ft 119 kts 144°
2026-04-25 03:06 37.45805 126.42873 35 ft 173 kts 145°
2026-04-25 03:07 37.44771 126.43785 552 ft 180 kts 145°
2026-04-25 03:07 37.43738 126.44695 1315 ft 184 kts 146°
2026-04-25 03:07 37.42625 126.45657 1720 ft 205 kts 147°
2026-04-25 03:07 37.41391 126.46729 1943 ft 227 kts 147°
2026-04-25 03:08 37.39868 126.47520 2190 ft 249 kts 176°
2026-04-25 03:08 37.38178 126.47174 2823 ft 254 kts 208°
2026-04-25 03:08 37.36875 126.45713 3615 ft 255 kts 240°
2026-04-25 03:08 37.36412 126.43582 4380 ft 259 kts 270°
2026-04-25 03:09 37.36510 126.41310 5188 ft 262 kts 273°
2026-04-25 03:09 37.36639 126.39006 5955 ft 266 kts 273°
2026-04-25 03:09 37.36775 126.36669 6714 ft 270 kts 273°
2026-04-25 03:09 37.36912 126.34302 7429 ft 274 kts 273°
2026-04-25 03:10 37.37046 126.31900 8160 ft 277 kts 273°
2026-04-25 03:10 37.37176 126.29466 8885 ft 281 kts 272°
2026-04-25 03:10 37.37301 126.27034 9614 ft 285 kts 272°
2026-04-25 03:10 37.37430 126.24524 10225 ft 295 kts 272°
2026-04-25 03:11 37.37568 126.21852 10398 ft 318 kts 272°
2026-04-25 03:11 37.37716 126.18981 10533 ft 341 kts 272°
2026-04-25 03:11 37.37871 126.15950 10937 ft 352 kts 272°
2026-04-25 03:11 37.38028 126.12858 11556 ft 356 kts 272°
2026-04-25 03:12 37.38186 126.09731 12216 ft 360 kts 272°
2026-04-25 03:12 37.38342 126.06577 12884 ft 363 kts 272°
2026-04-25 03:12 37.38497 126.03387 13549 ft 367 kts 272°
2026-04-25 03:12 37.38653 126.00210 14182 ft 371 kts 272°
2026-04-25 03:13 37.38814 125.96965 14794 ft 374 kts 272°
2026-04-25 03:13 37.38978 125.93692 15426 ft 376 kts 272°
2026-04-25 03:13 37.39140 125.90396 16059 ft 379 kts 272°
2026-04-25 03:13 37.39299 125.87082 16696 ft 381 kts 272°
2026-04-25 03:14 37.39459 125.83746 17329 ft 384 kts 272°
2026-04-25 03:14 37.39620 125.80387 17958 ft 386 kts 272°
2026-04-25 03:14 37.39782 125.77008 18562 ft 389 kts 272°
2026-04-25 03:14 37.39944 125.73646 19091 ft 391 kts 272°
2026-04-25 03:15 37.40108 125.70222 19628 ft 394 kts 272°
2026-04-25 03:15 37.40270 125.66773 20167 ft 397 kts 272°
2026-04-25 03:15 37.40390 125.63297 20696 ft 399 kts 270°
2026-04-25 03:15 37.40401 125.59798 21213 ft 402 kts 268°
2026-04-25 03:16 37.40340 125.56274 21703 ft 404 kts 267°
2026-04-25 03:16 37.40244 125.52736 21863 ft 406 kts 266°
2026-04-25 03:16 37.40142 125.49164 21894 ft 411 kts 266°
2026-04-25 03:16 37.40054 125.45568 21894 ft 412 kts 267°
2026-04-25 03:17 37.39986 125.42013 21890 ft 412 kts 267°
2026-04-25 03:17 37.39928 125.38412 21889 ft 412 kts 268°
2026-04-25 03:17 37.39877 125.34806 21891 ft 412 kts 268°
2026-04-25 03:17 37.39828 125.31205 21891 ft 412 kts 268°
2026-04-25 03:18 37.39773 125.27601 21890 ft 412 kts 267°
2026-04-25 03:18 37.39714 125.23997 21895 ft 412 kts 267°
2026-04-25 03:18 37.39654 125.20392 21891 ft 412 kts 267°
2026-04-25 03:18 37.39592 125.16790 21891 ft 412 kts 267°
2026-04-25 03:19 37.39529 125.13231 21889 ft 412 kts 267°
2026-04-25 03:19 37.39465 125.09626 21887 ft 412 kts 267°
2026-04-25 03:19 37.39402 125.06021 21888 ft 413 kts 267°
2026-04-25 03:19 37.39335 125.02412 21886 ft 413 kts 267°
2026-04-25 03:20 37.39268 124.98806 21887 ft 413 kts 267°
2026-04-25 03:20 37.39201 124.95192 21884 ft 413 kts 267°
2026-04-25 03:20 37.39132 124.91582 21882 ft 414 kts 267°
2026-04-25 03:20 37.39059 124.87966 21882 ft 414 kts 267°
2026-04-25 03:21 37.38986 124.84394 21885 ft 414 kts 267°
2026-04-25 03:21 37.38915 124.80775 21883 ft 414 kts 267°
2026-04-25 03:21 37.38843 124.77157 21884 ft 414 kts 267°
2026-04-25 03:21 37.38771 124.73536 21885 ft 414 kts 267°
2026-04-25 03:22 37.38696 124.69911 21883 ft 414 kts 267°
2026-04-25 03:22 37.38618 124.66289 21883 ft 415 kts 267°
2026-04-25 03:22 37.38538 124.62668 21883 ft 415 kts 267°
2026-04-25 03:22 37.38459 124.59044 21883 ft 415 kts 267°
2026-04-25 03:23 37.38379 124.55468 21884 ft 415 kts 267°
2026-04-25 03:23 37.38299 124.51846 21879 ft 415 kts 267°
2026-04-25 03:23 37.38215 124.48222 21881 ft 415 kts 267°
2026-04-25 03:23 37.37976 124.44617 21880 ft 413 kts 258°
2026-04-25 03:24 37.37255 124.41138 21873 ft 412 kts 249°
2026-04-25 03:24 37.36070 124.37873 21876 ft 410 kts 239°
2026-04-25 03:24 37.34565 124.34827 21874 ft 410 kts 237°
2026-04-25 03:24 37.33041 124.31796 21869 ft 410 kts 237°
2026-04-25 03:25 37.31520 124.28765 21870 ft 410 kts 237°
2026-04-25 03:25 37.30017 124.25770 21872 ft 411 kts 237°
2026-04-25 03:25 37.28496 124.22737 21872 ft 411 kts 237°
2026-04-25 03:25 37.26975 124.19703 21877 ft 411 kts 237°
2026-04-25 03:26 37.25448 124.16668 21876 ft 411 kts 236°
2026-04-25 03:26 37.23918 124.13635 21871 ft 411 kts 236°
2026-04-25 03:26 37.22373 124.10616 21870 ft 412 kts 236°
2026-04-25 03:26 37.20794 124.07619 21870 ft 412 kts 235°
2026-04-25 03:27 37.19194 124.04639 21866 ft 412 kts 234°
2026-04-25 03:27 37.17607 124.01708 21866 ft 412 kts 234°
2026-04-25 03:27 37.16000 123.98732 21868 ft 412 kts 235°
2026-04-25 03:27 37.14419 123.95736 21867 ft 412 kts 236°
2026-04-25 03:28 37.12860 123.92717 21869 ft 413 kts 236°
2026-04-25 03:28 37.11312 123.89690 21869 ft 413 kts 236°
2026-04-25 03:28 37.09766 123.86661 21871 ft 413 kts 236°
2026-04-25 03:28 37.08217 123.83635 21871 ft 413 kts 236°
2026-04-25 03:29 37.06664 123.80611 21877 ft 413 kts 236°
2026-04-25 03:29 37.05127 123.77633 21872 ft 413 kts 236°
2026-04-25 03:29 37.03566 123.74620 21872 ft 413 kts 236°
2026-04-25 03:29 37.02005 123.71611 21878 ft 413 kts 236°
2026-04-25 03:30 37.00442 123.68595 21874 ft 413 kts 236°
2026-04-25 03:30 36.98879 123.65579 21866 ft 413 kts 236°
2026-04-25 03:30 36.97312 123.62563 21865 ft 414 kts 236°
2026-04-25 03:30 36.95741 123.59548 21867 ft 414 kts 236°
2026-04-25 03:31 36.94169 123.56536 21868 ft 414 kts 236°
2026-04-25 03:31 36.92619 123.53564 21872 ft 414 kts 236°
2026-04-25 03:31 36.91048 123.50550 21876 ft 414 kts 236°
2026-04-25 03:31 36.89476 123.47540 21870 ft 414 kts 236°
2026-04-25 03:32 36.87901 123.44529 21867 ft 414 kts 236°
2026-04-25 03:32 36.86354 123.41498 21866 ft 415 kts 240°
2026-04-25 03:32 36.85192 123.38198 21863 ft 416 kts 251°
2026-04-25 03:32 36.84579 123.34664 21862 ft 418 kts 263°
2026-04-25 03:33 36.84542 123.31035 21864 ft 420 kts 274°
2026-04-25 03:33 36.85067 123.27496 21864 ft 421 kts 285°
2026-04-25 03:33 36.85923 123.24003 21862 ft 422 kts 286°
2026-04-25 03:33 36.86779 123.20501 21860 ft 422 kts 285°
2026-04-25 03:34 36.87627 123.16994 21859 ft 422 kts 285°
2026-04-25 03:34 36.88466 123.13479 21862 ft 422 kts 285°
2026-04-25 03:34 36.89302 123.09967 21859 ft 422 kts 286°
2026-04-25 03:34 36.90143 123.06457 21870 ft 422 kts 285°
2026-04-25 03:35 36.90988 123.02943 21866 ft 422 kts 285°
2026-04-25 03:35 36.91819 122.99483 21865 ft 422 kts 285°
2026-04-25 03:35 36.92660 122.95970 21868 ft 422 kts 285°
2026-04-25 03:35 36.93501 122.92453 21863 ft 422 kts 285°
2026-04-25 03:36 36.94339 122.88943 21866 ft 422 kts 285°
2026-04-25 03:36 36.95178 122.85429 21868 ft 422 kts 286°
2026-04-25 03:36 36.96014 122.81916 21865 ft 422 kts 285°
2026-04-25 03:36 36.96847 122.78406 21867 ft 421 kts 286°
2026-04-25 03:37 36.97679 122.74891 21868 ft 421 kts 285°
2026-04-25 03:37 36.98498 122.71431 21866 ft 421 kts 285°
2026-04-25 03:37 36.99330 122.67920 21864 ft 421 kts 285°
2026-04-25 03:37 37.00161 122.64410 21863 ft 421 kts 285°
2026-04-25 03:38 37.00991 122.60898 21855 ft 421 kts 285°
2026-04-25 03:38 37.01817 122.57388 21857 ft 420 kts 286°
2026-04-25 03:38 37.02642 122.53878 21860 ft 420 kts 285°
2026-04-25 03:38 37.03462 122.50371 21860 ft 420 kts 285°
2026-04-25 03:39 37.04281 122.46861 21865 ft 420 kts 285°
2026-04-25 03:39 37.05089 122.43397 21866 ft 420 kts 285°
2026-04-25 03:39 37.05909 122.39892 21860 ft 420 kts 285°
2026-04-25 03:39 37.06766 122.36762 21857 ft 420 kts 292°
2026-04-25 03:40 37.08158 122.33545 21846 ft 421 kts 303°
2026-04-25 03:40 37.09988 122.30692 21853 ft 420 kts 314°
2026-04-25 03:40 37.12192 122.28295 21854 ft 420 kts 323°
2026-04-25 03:40 37.14544 122.26123 21855 ft 420 kts 322°
2026-04-25 03:41 37.16673 122.23633 21848 ft 419 kts 311°
2026-04-25 03:41 37.18409 122.20702 21846 ft 419 kts 301°
2026-04-25 03:41 37.19697 122.17487 21841 ft 418 kts 291°
2026-04-25 03:41 37.20630 122.14036 21841 ft 418 kts 287°
2026-04-25 03:42 37.21526 122.10568 21839 ft 418 kts 288°
2026-04-25 03:42 37.22424 122.07097 21829 ft 418 kts 288°
2026-04-25 03:42 37.23325 122.03629 21830 ft 418 kts 288°
2026-04-25 03:42 37.24225 122.00160 21832 ft 418 kts 288°
2026-04-25 03:43 37.25122 121.96690 21834 ft 418 kts 288°
2026-04-25 03:43 37.26017 121.93219 21831 ft 418 kts 288°
2026-04-25 03:43 37.26899 121.89800 21830 ft 418 kts 288°
2026-04-25 03:43 37.27796 121.86332 21831 ft 418 kts 288°
2026-04-25 03:44 37.28693 121.82860 21822 ft 418 kts 288°
2026-04-25 03:44 37.29585 121.79393 21822 ft 418 kts 289°
2026-04-25 03:44 37.30476 121.75920 21823 ft 417 kts 288°
2026-04-25 03:44 37.31363 121.72449 21818 ft 417 kts 289°
2026-04-25 03:45 37.32248 121.68980 21818 ft 417 kts 288°
2026-04-25 03:45 37.33132 121.65509 21826 ft 417 kts 289°
2026-04-25 03:45 37.34001 121.62091 21816 ft 417 kts 288°
2026-04-25 03:45 37.34881 121.58621 21817 ft 417 kts 288°
2026-04-25 03:46 37.35761 121.55152 21817 ft 417 kts 288°
2026-04-25 03:46 37.36640 121.51685 21808 ft 416 kts 289°
2026-04-25 03:46 37.37520 121.48218 21809 ft 416 kts 289°
2026-04-25 03:46 37.38399 121.44753 21811 ft 416 kts 289°
2026-04-25 03:47 37.39277 121.41288 21810 ft 416 kts 289°
2026-04-25 03:47 37.40142 121.37865 21804 ft 416 kts 288°
2026-04-25 03:47 37.41015 121.34401 21804 ft 416 kts 289°
2026-04-25 03:47 37.41885 121.30936 21803 ft 416 kts 289°
2026-04-25 03:48 37.42753 121.27467 21797 ft 415 kts 289°
2026-04-25 03:48 37.43619 121.24001 21790 ft 415 kts 289°
2026-04-25 03:48 37.44485 121.20536 21794 ft 415 kts 289°
2026-04-25 03:48 37.45362 121.17080 21795 ft 414 kts 289°
2026-04-25 03:49 37.46342 121.13669 21802 ft 414 kts 292°
2026-04-25 03:49 37.47409 121.10312 21802 ft 413 kts 293°
2026-04-25 03:49 37.48505 121.07022 21794 ft 413 kts 294°
2026-04-25 03:49 37.49622 121.03693 21793 ft 413 kts 294°
2026-04-25 03:50 37.50728 121.00358 21791 ft 413 kts 294°
2026-04-25 03:50 37.51817 120.97016 21794 ft 412 kts 293°
2026-04-25 03:50 37.52889 120.93668 21790 ft 412 kts 292°
2026-04-25 03:50 37.53947 120.90314 21793 ft 412 kts 293°
2026-04-25 03:51 37.54999 120.86963 21796 ft 411 kts 292°
2026-04-25 03:51 37.56050 120.83615 21798 ft 411 kts 292°
2026-04-25 03:51 37.57099 120.80269 21796 ft 410 kts 292°
2026-04-25 03:51 37.58148 120.76933 21794 ft 410 kts 292°
2026-04-25 03:52 37.59191 120.73640 21782 ft 410 kts 292°
2026-04-25 03:52 37.60272 120.70317 21782 ft 410 kts 294°
2026-04-25 03:52 37.61366 120.67003 21785 ft 409 kts 294°
2026-04-25 03:52 37.62464 120.63699 21783 ft 409 kts 294°
2026-04-25 03:53 37.63560 120.60387 21775 ft 409 kts 294°
2026-04-25 03:53 37.64651 120.57075 21775 ft 409 kts 293°
2026-04-25 03:53 37.65819 120.53809 21768 ft 408 kts 300°
2026-04-25 03:53 37.67236 120.50710 21772 ft 407 kts 301°
2026-04-25 03:54 37.68659 120.47616 21766 ft 407 kts 301°
2026-04-25 03:54 37.70058 120.44559 21759 ft 408 kts 301°
2026-04-25 03:54 37.71471 120.41454 21759 ft 408 kts 300°
2026-04-25 03:54 37.72883 120.38345 21759 ft 408 kts 300°
2026-04-25 03:55 37.74292 120.35240 21765 ft 407 kts 300°
2026-04-25 03:55 37.75702 120.32139 21767 ft 407 kts 300°
2026-04-25 03:55 37.77114 120.29037 21760 ft 407 kts 300°
2026-04-25 03:55 37.78527 120.25933 21762 ft 407 kts 300°
2026-04-25 03:56 37.79936 120.22832 21764 ft 407 kts 300°
2026-04-25 03:56 37.81324 120.19772 21764 ft 407 kts 300°
2026-04-25 03:56 37.82726 120.16666 21764 ft 406 kts 300°
2026-04-25 03:56 37.84124 120.13562 21758 ft 407 kts 300°
2026-04-25 03:57 37.85523 120.10457 21757 ft 407 kts 300°
2026-04-25 03:57 37.86924 120.07349 21763 ft 406 kts 300°
2026-04-25 03:57 37.88325 120.04243 21759 ft 406 kts 300°
2026-04-25 03:57 37.89723 120.01139 21758 ft 406 kts 300°
2026-04-25 03:58 37.90989 119.98324 21754 ft 406 kts 300°
2026-04-25 03:58 37.92365 119.95258 21754 ft 406 kts 300°
2026-04-25 03:58 37.93760 119.92151 21755 ft 406 kts 300°
2026-04-25 03:58 37.95154 119.89040 21755 ft 406 kts 300°
2026-04-25 03:59 37.96547 119.85933 21755 ft 406 kts 300°
2026-04-25 03:59 37.97941 119.82821 21750 ft 406 kts 300°
2026-04-25 03:59 37.99331 119.79712 21755 ft 405 kts 300°
2026-04-25 03:59 38.00715 119.76619 21749 ft 401 kts 300°
2026-04-25 04:00 38.02092 119.73540 21753 ft 402 kts 300°
2026-04-25 04:00 38.03451 119.70494 21752 ft 402 kts 300°
2026-04-25 04:00 38.04828 119.67402 21754 ft 403 kts 299°
2026-04-25 04:00 38.06204 119.64308 21751 ft 402 kts 299°
2026-04-25 04:01 38.07572 119.61228 21750 ft 400 kts 299°
2026-04-25 04:01 38.08943 119.58144 21746 ft 402 kts 299°
2026-04-25 04:01 38.10316 119.55053 21741 ft 403 kts 299°
2026-04-25 04:01 38.11574 119.51868 21750 ft 404 kts 292°
2026-04-25 04:02 38.12646 119.48569 21755 ft 404 kts 292°
2026-04-25 04:02 38.13705 119.45318 21758 ft 403 kts 292°
2026-04-25 04:02 38.14777 119.42026 21752 ft 403 kts 292°
2026-04-25 04:02 38.15848 119.38737 21745 ft 403 kts 292°
2026-04-25 04:03 38.16921 119.35444 21744 ft 403 kts 292°
2026-04-25 04:03 38.17994 119.32151 21745 ft 403 kts 292°
2026-04-25 04:03 38.19062 119.28865 21747 ft 402 kts 292°
2026-04-25 04:03 38.20129 119.25581 21743 ft 402 kts 292°
2026-04-25 04:04 38.21195 119.22293 21725 ft 403 kts 292°
2026-04-25 04:04 38.22245 119.19046 21721 ft 403 kts 292°
2026-04-25 04:04 38.23308 119.15749 21721 ft 403 kts 292°
2026-04-25 04:04 38.24371 119.12450 21717 ft 403 kts 292°
2026-04-25 04:05 38.25433 119.09150 21717 ft 403 kts 292°
2026-04-25 04:05 38.26494 119.05847 21716 ft 403 kts 292°
2026-04-25 04:05 38.27557 119.02544 21717 ft 403 kts 292°
2026-04-25 04:05 38.28619 118.99239 21719 ft 403 kts 292°
2026-04-25 04:06 38.29680 118.95932 21719 ft 403 kts 292°
2026-04-25 04:06 38.30724 118.92670 21716 ft 404 kts 292°
2026-04-25 04:06 38.31786 118.89358 21709 ft 404 kts 292°
2026-04-25 04:06 38.32848 118.86043 21709 ft 405 kts 292°
2026-04-25 04:07 38.33908 118.82719 21708 ft 405 kts 292°
2026-04-25 04:07 38.34965 118.79398 21711 ft 405 kts 292°
2026-04-25 04:07 38.36025 118.76072 21706 ft 405 kts 292°
2026-04-25 04:07 38.37087 118.72743 21706 ft 405 kts 292°
2026-04-25 04:08 38.38150 118.69419 21706 ft 405 kts 292°
2026-04-25 04:08 38.39203 118.66136 21704 ft 405 kts 293°
2026-04-25 04:08 38.40266 118.62811 21704 ft 406 kts 293°
2026-04-25 04:08 38.41329 118.59479 21704 ft 406 kts 293°
2026-04-25 04:09 38.42390 118.56145 21705 ft 406 kts 293°
2026-04-25 04:09 38.43449 118.52803 21703 ft 406 kts 293°
2026-04-25 04:09 38.44508 118.49463 21705 ft 406 kts 293°
2026-04-25 04:09 38.45567 118.46117 21707 ft 407 kts 293°
2026-04-25 04:10 38.46625 118.42772 21706 ft 407 kts 293°
2026-04-25 04:10 38.47683 118.39426 21707 ft 407 kts 293°
2026-04-25 04:10 38.48729 118.36118 21702 ft 407 kts 293°
2026-04-25 04:10 38.49783 118.32771 21704 ft 407 kts 293°
2026-04-25 04:11 38.51892 118.26071 21704 ft 407 kts 293°
2026-04-25 04:11 38.52946 118.22718 21704 ft 407 kts 293°
2026-04-25 04:11 38.54001 118.19366 21706 ft 407 kts 293°
2026-04-25 04:12 38.55054 118.16011 21708 ft 407 kts 293°
2026-04-25 04:12 38.56104 118.12656 21707 ft 407 kts 293°
2026-04-25 04:12 38.57151 118.09302 21705 ft 407 kts 293°
2026-04-25 04:12 38.58178 118.06007 21543 ft 400 kts 293°
2026-04-25 04:13 38.59193 118.02746 21284 ft 392 kts 293°
2026-04-25 04:13 38.60239 117.99547 21024 ft 389 kts 295°
2026-04-25 04:13 38.61334 117.96391 20770 ft 387 kts 296°
2026-04-25 04:13 38.62452 117.93269 20521 ft 386 kts 296°
2026-04-25 04:14 38.63575 117.90157 20266 ft 385 kts 296°
2026-04-25 04:14 38.64688 117.87053 20019 ft 383 kts 295°
2026-04-25 04:14 38.65788 117.83951 19775 ft 382 kts 295°
2026-04-25 04:14 38.66873 117.80855 19529 ft 381 kts 295°
2026-04-25 04:15 38.67928 117.77824 19151 ft 375 kts 295°
2026-04-25 04:15 38.68980 117.74785 18683 ft 372 kts 295°
2026-04-25 04:15 38.70024 117.71766 18172 ft 370 kts 295°
2026-04-25 04:15 38.71064 117.68767 17653 ft 366 kts 294°
2026-04-25 04:16 38.72091 117.65804 17143 ft 363 kts 294°
2026-04-25 04:16 38.73109 117.62870 16654 ft 359 kts 294°
2026-04-25 04:16 38.74116 117.59960 16151 ft 355 kts 294°
2026-04-25 04:16 38.75112 117.57082 15654 ft 352 kts 293°
2026-04-25 04:17 38.76089 117.54256 15154 ft 350 kts 293°
2026-04-25 04:17 38.77071 117.51412 14656 ft 348 kts 293°
2026-04-25 04:17 38.78044 117.48582 14158 ft 346 kts 292°
2026-04-25 04:17 38.79012 117.45770 13644 ft 344 kts 292°
2026-04-25 04:18 38.79976 117.42972 13126 ft 341 kts 291°
2026-04-25 04:18 38.80925 117.40212 12622 ft 337 kts 292°
2026-04-25 04:18 38.81864 117.37481 12130 ft 333 kts 292°
2026-04-25 04:18 38.82793 117.34776 11652 ft 330 kts 292°
2026-04-25 04:19 38.83699 117.32128 11176 ft 327 kts 291°
2026-04-25 04:19 38.84612 117.29462 10698 ft 325 kts 291°
2026-04-25 04:19 38.85511 117.26846 10487 ft 314 kts 291°
2026-04-25 04:19 38.86375 117.24331 10364 ft 302 kts 290°
2026-04-25 04:20 38.87200 117.21916 10241 ft 290 kts 290°
2026-04-25 04:20 38.87996 117.19573 10024 ft 283 kts 290°
2026-04-25 04:20 38.88774 117.17281 9883 ft 279 kts 290°
2026-04-25 04:20 38.89555 117.14987 9757 ft 281 kts 291°
2026-04-25 04:21 38.90337 117.12689 9670 ft 281 kts 291°
2026-04-25 04:21 38.91109 117.10423 9600 ft 280 kts 291°
2026-04-25 04:21 38.91889 117.08132 9532 ft 280 kts 291°
2026-04-25 04:21 38.92669 117.05834 9469 ft 280 kts 291°
2026-04-25 04:22 38.93445 117.03540 9406 ft 280 kts 290°
2026-04-25 04:22 38.94220 117.01255 9340 ft 279 kts 290°
2026-04-25 04:22 38.94995 116.98967 9278 ft 279 kts 290°
2026-04-25 04:22 38.95769 116.96682 9211 ft 279 kts 291°
2026-04-25 04:23 38.96542 116.94393 9132 ft 279 kts 291°
2026-04-25 04:23 38.97315 116.92107 9061 ft 278 kts 291°
2026-04-25 04:23 38.98075 116.89861 8979 ft 278 kts 291°
2026-04-25 04:23 38.98844 116.87584 8903 ft 278 kts 290°
2026-04-25 04:24 38.99611 116.85312 8816 ft 277 kts 291°
2026-04-25 04:24 39.00376 116.83044 8738 ft 276 kts 290°
2026-04-25 04:24 39.01140 116.80776 8659 ft 276 kts 291°
2026-04-25 04:24 39.01902 116.78513 8575 ft 276 kts 291°
2026-04-25 04:25 39.02661 116.76251 8493 ft 275 kts 290°
2026-04-25 04:25 39.03417 116.73992 8416 ft 275 kts 290°
2026-04-25 04:25 39.04175 116.71735 8334 ft 274 kts 290°
2026-04-25 04:25 39.04922 116.69510 8252 ft 274 kts 290°
2026-04-25 04:26 39.05677 116.67260 8166 ft 274 kts 290°
2026-04-25 04:26 39.06430 116.65011 8083 ft 274 kts 290°
2026-04-25 04:26 39.07411 116.62906 8002 ft 277 kts 308°
2026-04-25 04:26 39.08903 116.61314 7918 ft 283 kts 328°
2026-04-25 04:27 39.10769 116.60463 7837 ft 289 kts 348°
2026-04-25 04:27 39.12769 116.60147 7750 ft 290 kts 350°
2026-04-25 04:27 39.14769 116.59845 7662 ft 290 kts 350°
2026-04-25 04:27 39.16768 116.59539 7579 ft 289 kts 350°
2026-04-25 04:28 39.18763 116.59231 7492 ft 289 kts 349°
2026-04-25 04:28 39.20729 116.58924 7401 ft 288 kts 349°
2026-04-25 04:28 39.22720 116.58612 7318 ft 288 kts 349°
2026-04-25 04:28 39.24712 116.58304 7245 ft 288 kts 349°
2026-04-25 04:29 39.26699 116.57995 7150 ft 287 kts 349°
2026-04-25 04:29 39.28680 116.57689 7055 ft 287 kts 349°
2026-04-25 04:29 39.30665 116.57383 6982 ft 287 kts 349°
2026-04-25 04:29 39.32646 116.57077 6895 ft 287 kts 349°
2026-04-25 04:30 39.34625 116.56768 6717 ft 286 kts 349°
2026-04-25 04:30 39.36575 116.56461 6551 ft 286 kts 349°
2026-04-25 04:30 39.38550 116.56149 6368 ft 286 kts 349°
2026-04-25 04:30 39.40523 116.55842 6195 ft 285 kts 349°
2026-04-25 04:31 39.42487 116.55537 6029 ft 284 kts 349°
2026-04-25 04:31 39.44446 116.55232 5858 ft 283 kts 349°
2026-04-25 04:31 39.46401 116.54925 5701 ft 283 kts 349°
2026-04-25 04:31 39.48359 116.54617 5538 ft 283 kts 349°
2026-04-25 04:32 39.50321 116.54309 5361 ft 284 kts 349°
2026-04-25 04:32 39.52281 116.54002 5200 ft 284 kts 349°
2026-04-25 04:32 39.54239 116.53695 5029 ft 283 kts 349°
2026-04-25 04:32 39.56169 116.53393 4881 ft 283 kts 349°
2026-04-25 04:33 39.58122 116.53085 4786 ft 283 kts 349°
2026-04-25 04:33 39.60073 116.52778 4669 ft 282 kts 349°
2026-04-25 04:33 39.62018 116.52472 4556 ft 282 kts 349°
2026-04-25 04:33 39.63963 116.52167 4449 ft 281 kts 349°
2026-04-25 04:34 39.65899 116.51864 4328 ft 280 kts 349°
2026-04-25 04:34 39.67827 116.51560 4226 ft 279 kts 349°
2026-04-25 04:34 39.69753 116.51256 4118 ft 279 kts 349°
2026-04-25 04:34 39.71651 116.50958 4003 ft 278 kts 349°
2026-04-25 04:35 39.73573 116.50658 3899 ft 278 kts 350°
2026-04-25 04:35 39.75481 116.50361 3782 ft 272 kts 349°
2026-04-25 04:35 39.77322 116.50057 3654 ft 260 kts 345°
2026-04-25 04:35 39.78887 116.49131 3521 ft 240 kts 313°
2026-04-25 04:36 39.79791 116.47436 3419 ft 223 kts 284°
2026-04-25 04:36 39.79940 116.45461 3367 ft 220 kts 260°
2026-04-25 04:36 39.79752 116.43494 3312 ft 219 kts 259°
2026-04-25 04:36 39.79565 116.41561 3195 ft 218 kts 260°
2026-04-25 04:37 39.79224 116.39661 3090 ft 216 kts 238°
2026-04-25 04:37 39.78123 116.38468 3013 ft 205 kts 196°
2026-04-25 04:37 39.76726 116.38455 2931 ft 200 kts 174°
2026-04-25 04:37 39.75337 116.38676 2874 ft 201 kts 175°
2026-04-25 04:38 39.73952 116.38896 2798 ft 201 kts 175°
2026-04-25 04:38 39.72571 116.39115 2715 ft 199 kts 174°
2026-04-25 04:38 39.71203 116.39334 2631 ft 198 kts 174°
2026-04-25 04:38 39.69863 116.39544 2560 ft 187 kts 175°
2026-04-25 04:39 39.68610 116.39732 2480 ft 181 kts 176°
2026-04-25 04:39 39.67359 116.39937 2408 ft 181 kts 176°
2026-04-25 04:39 39.66113 116.40138 2336 ft 180 kts 176°
2026-04-25 04:39 39.64870 116.40334 2272 ft 180 kts 176°
2026-04-25 04:40 39.63627 116.40531 2198 ft 178 kts 176°
2026-04-25 04:40 39.62462 116.40716 2143 ft 163 kts 175°
2026-04-25 04:40 39.61360 116.40890 2080 ft 158 kts 175°
2026-04-25 04:40 39.60285 116.41059 2012 ft 157 kts 175°
2026-04-25 04:41 39.59188 116.41232 1841 ft 157 kts 174°
2026-04-25 04:41 39.58154 116.41395 1630 ft 145 kts 173°
2026-04-25 04:41 39.57170 116.41550 1467 ft 140 kts 173°
2026-04-25 04:41 39.56216 116.41701 1288 ft 137 kts 174°
2026-04-25 04:42 39.55277 116.41849 1113 ft 134 kts 173°
2026-04-25 04:42 39.54349 116.41996 932 ft 135 kts 173°
2026-04-25 04:42 39.53402 116.42142 754 ft 137 kts 173°
2026-04-25 04:42 39.52452 116.42290 619 ft 135 kts 174°
2026-04-25 04:43 39.51512 116.42450 409 ft 138 kts 175°
2026-04-25 04:43 39.50577 116.42591 242 ft 138 kts 176°
2026-04-25 04:43 39.49624 116.42731 118 ft 134 kts 172°
2026-04-25 04:43 39.48836 116.42875 95 ft 91 kts 173°
2026-04-25 04:44 39.48379 116.42945 98 ft 41 kts 173°
2026-04-25 04:44 39.48201 116.42953 99 ft 19 kts 192°
2026-04-25 04:44 39.48104 116.42918 99 ft 13 kts 198°
2026-04-25 04:44 39.48022 116.42879 92 ft 10 kts 203°
2026-04-25 04:45 39.48003 116.42793 90 ft 10 kts 307°
2026-04-25 04:45 39.48063 116.42770 90 ft 10 kts 350°
2026-04-25 04:45 39.48138 116.42760 90 ft 12 kts 354°
2026-04-25 04:45 39.48224 116.42747 89 ft 13 kts 353°
2026-04-25 04:46 39.48323 116.42731 89 ft 15 kts 353°
2026-04-25 04:46 39.48435 116.42714 89 ft 17 kts 353°
2026-04-25 04:46 39.48557 116.42694 88 ft 19 kts 353°
2026-04-25 04:46 39.48688 116.42674 89 ft 17 kts 353°
2026-04-25 04:47 39.48797 116.42657 88 ft 16 kts 353°
2026-04-25 04:47 39.48910 116.42639 89 ft 17 kts 353°
2026-04-25 04:47 39.49035 116.42619 90 ft 19 kts 354°
2026-04-25 04:47 39.49170 116.42598 91 ft 20 kts 353°
2026-04-25 04:48 39.49301 116.42577 87 ft 15 kts 353°
2026-04-25 04:48 39.49395 116.42554 89 ft 13 kts 338°
2026-04-25 04:48 39.49467 116.42499 86 ft 11 kts 327°
2026-04-25 04:48 39.49537 116.42441 88 ft 10 kts 327°
2026-04-25 04:49 39.49609 116.42414 88 ft 12 kts 354°
2026-04-25 04:49 39.49696 116.42401 87 ft 14 kts 353°
2026-04-25 04:49 39.49796 116.42385 87 ft 15 kts 353°
2026-04-25 04:49 39.49908 116.42367 85 ft 17 kts 353°
2026-04-25 04:50 39.50031 116.42347 88 ft 19 kts 353°
2026-04-25 04:50 39.50164 116.42326 89 ft 18 kts 353°
2026-04-25 04:50 39.50258 116.42312 85 ft 8 kts 352°
2026-04-25 04:50 39.50296 116.42262 88 ft 9 kts 283°
2026-04-25 04:51 39.50291 116.42172 85 ft 11 kts 264°
2026-04-25 04:51 39.50281 116.42067 86 ft 13 kts 262°
2026-04-25 04:51 39.50269 116.41945 86 ft 14 kts 263°
2026-04-25 04:51 39.50257 116.41817 89 ft 14 kts 263°
2026-04-25 04:52 39.50245 116.41693 89 ft 13 kts 263°
2026-04-25 04:52 39.50245 116.41610 89 ft 8 kts 293°
2026-04-25 04:52 39.50292 116.41576 87 ft 8 kts 349°
2026-04-25 04:52 39.50352 116.41566 88 ft 9 kts 353°
2026-04-25 04:53 39.50416 116.41555 89 ft 10 kts 353°
2026-04-25 04:53 39.50487 116.41544 87 ft 11 kts 353°
2026-04-25 04:53 39.50550 116.41523 87 ft 9 kts 329°
2026-04-25 04:53 39.50600 116.41475 85 ft 8 kts 323°
2026-04-25 04:54 39.50648 116.41429 87 ft 9 kts 323°
2026-04-25 04:54 39.50689 116.41390 88 ft 6 kts 324°
2026-04-25 04:54 39.50727 116.41389 87 ft 5 kts 19°
2026-04-25 04:54 39.50753 116.41404 87 ft 4 kts 24°
2026-04-25 04:55 39.50765 116.41411 86 ft 1 kts 25°
2026-04-25 04:55 39.50777 116.41418 90 ft 2 kts 24°
2026-04-25 04:55 39.50790 116.41426 86 ft 1 kts 25°
2026-04-25 04:55 39.50795 116.41429 88 ft 1 kts 25°
2026-04-25 04:56 39.50800 116.41432 89 ft 0 kts 25°